Location: Destedt
(52.2380°N, 10.7106°E)
Time: 09:02:36
(UTC+00:00)

Daily predictions for brighter satellites

Satellite Brightness Start Highest point End
(mag) Time Altitude Azimuth Time Altitude Azimuth Time Altitude Azimuth
Cosmos 2285 Rocket 4.4 20:14:58 10° NNW 20:21:15 59° ENE 20:27:33 10° SE
Terra 3.7 20:23:11 10° SSW 20:27:12 28° W 20:31:16 10° NW
CENTAUR R/B 2.8 20:23:59 10° SW 20:29:45 79° NW 20:37:11 10° NE
Cosmos 1758 3.1 20:26:52 10° N 20:30:33 72° ENE 20:34:14 10° SSE
Cosmos 2208 Rocket 4.0 20:31:22 10° SSW 20:36:34 82° ESE 20:41:45 10° NNE
BREEZE-M DEB (TANK) 2.2 20:35:21 10° W 20:37:39 37° S 20:39:36 10° ESE
SPOT 3 Rocket 3.7 20:34:58 10° SSE 20:40:06 78° WSW 20:45:18 10° NNW
YAOGAN 11 4.3 20:37:21 10° NNE 20:41:50 78° WNW 20:46:15 10° SSW
NOSS 2-2 (D) 4.4 20:41:01 10° WSW 20:44:00 38° NW 20:46:51 10° NE
Okean 3 Rocket 3.7 20:41:39 10° NNW 20:46:08 79° W 20:50:32 10° S
Cosmos 2227 4.3 20:40:49 10° SSW 20:46:34 85° ESE 20:52:23 10° NNE
Cosmos 724 4.3 20:41:21 10° NW 20:47:11 80° SW 20:52:53 10° SSE
Ariane Rocket 3.1 20:44:39 10° SSE 20:49:44 83° WSW 20:54:51 10° NNW
Cosmos 2263 Rocket 4.4 20:45:07 10° WSW 20:49:59 30° NW 20:54:53 10° NNE
IRS-1C Rocket 4.2 20:45:01 10° SSE 20:50:17 83° WSW 20:55:35 10° NNW
Okean-O 4.1 20:47:07 10° SSW 20:51:02 32° W 20:55:01 10° NNW
Cosmos 1805 Rocket 3.5 20:48:05 10° N 20:52:26 79° E 20:56:45 10° SSE
Cosmos 1340 Rocket 3.0 20:52:06 10° NNW 20:55:50 61° W 20:59:30 10° S
Cosmos 1408 Rocket 3.6 20:52:10 10° N 20:56:35 87° ENE 21:01:00 10° S
NOSS 3-2 (A) 3.1 20:52:17 10° SSW 20:57:21 72° SE 21:03:30 10° NE
USA 215 3.3 20:51:02 10° ESE 20:57:35 82° SSW 21:04:09 10° WNW
Cosmos 1603 4.3 20:52:25 10° NW 20:57:59 52° WSW 21:03:29 10° S
Cosmos 1842 Rocket 4.3 20:54:37 10° SSW 20:59:00 55° WNW 21:03:22 10° N
Cosmos 1743 Rocket 3.7 20:59:40 10° N 21:03:59 63° ENE 21:07:49 13° SSE
Cosmos 1703 3.3 21:04:34 14° SSE 21:07:02 39° E 21:10:02 10° NNE
USA 245 4.3 21:04:00 10° SSW 21:07:25 34° W 21:10:17 10° NNW
Meteor 1-22 Rocket 4.3 21:03:32 10° N 21:08:51 63° ENE 21:13:31 13° SSE
Cosmos 1844 Rocket 3.0 21:03:29 10° SW 21:09:02 70° WNW 21:14:38 10° NNE
GEOS 3 Rocket 4.3 21:05:15 10° ESE 21:10:28 55° NE 21:15:44 10° NW
SL-14 R/B 4.0 21:08:11 10° SSW 21:11:48 48° WNW 21:15:26 10° N
CZ-4C R/B 4.3 21:08:24 10° WNW 21:14:28 30° WSW 21:21:35 10° S
Cosmos 1553 Rocket 4.1 21:08:22 10° S 21:14:44 82° E 21:21:04 10° NNE
Cosmos 1833 Rocket 2.9 21:12:15 10° NNW 21:17:55 71° ENE 21:22:56 13° SE
Cosmos 1709 Rocket 4.4 21:13:07 10° N 21:19:22 55° ENE 21:24:50 14° SSE
Cosmos 1151 Rocket 3.1 21:15:09 10° SSW 21:19:29 81° W 21:23:50 10° N
Cosmos 2082 Rocket 3.9 21:18:15 10° NNW 21:22:58 26° NE 21:27:40 10° E
CZ-2C R/B 2.6 21:23:48 15° S 21:25:52 46° WSW 21:28:34 10° NNW
Cosmos 1953 2.1 21:23:25 10° N 21:27:00 66° ENE 21:29:35 17° SSE
SL-24 R/B - RUBIN 2 4.1 21:25:18 10° WSW 21:29:42 60° NW 21:34:03 10° NE
CZ-4B R/B 4.4 21:25:06 10° S 21:29:54 42° W 21:34:51 10° NNW
Cosmos 1844 4.5 21:24:35 10° SW 21:30:18 58° NW 21:36:02 10° NNE
Okean O Rocket 4.1 21:28:20 10° WSW 21:30:50 15° W 21:33:20 10° NW
Cosmos 2278 Rocket 4.0 21:28:07 11° SE 21:30:53 15° E 21:34:02 10° ENE
Cosmos 1633 Rocket 3.4 21:30:34 10° N 21:34:53 54° ENE 21:38:07 17° SSE
Meteor 1-13 Rocket 4.5 21:33:10 13° S 21:38:19 61° E 21:44:12 10° NNE
NOSS 3-2 (C) 3.2 21:33:46 10° SSW 21:38:44 59° SE 21:44:45 10° NE
NOSS 2-3 (C) 3.7 21:42:37 18° S 21:44:37 33° SE 21:47:54 10° ENE
Cosmos 1745 Rocket 4.1 21:39:28 10° NNW 21:45:45 84° W 21:51:04 15° S
Cosmos 1400 Rocket 4.3 21:45:26 10° N 21:48:28 23° ENE 21:51:03 12° ESE
Cosmos 2056 Rocket 4.2 21:44:09 10° NNW 21:49:07 47° ENE 21:53:26 13° SE
Helios 1A 2.9 21:50:48 10° NNE 21:54:43 63° ESE 21:57:27 19° S
ACS3 Solar Sail 3.8 21:54:16 10° ENE 21:55:46 11° ENE 21:57:16 10° E
GP-B 4.1 21:52:59 10° N 21:57:06 41° W 22:01:12 10° SSW
Cosmos 2344 3.8 21:49:50 10° SSW 21:57:14 47° ESE 22:04:03 10° NE
Helios 1B rocket 2.1 21:57:42 22° SSE 21:59:48 65° ENE 22:03:15 10° N
Iridium 4 Rocket 4.0 21:55:05 10° SSW 22:00:22 58° W 22:05:20 10° N
ARIANE 5 R/B 3.1 21:59:12 18° SE 22:02:23 53° ENE 22:06:44 10° N
Cosmos 1470 Rocket 3.6 22:02:16 10° N 22:06:45 75° E 22:09:41 21° SSE
Okean 2 3.8 22:07:04 22° SSE 22:09:09 44° E 22:12:49 10° NNE
Cosmos 1420 Rocket 4.0 22:04:18 10° NNW 22:09:32 76° WSW 22:13:10 20° SSE
Cosmos 1241 Rocket 4.4 22:03:50 10° SSW 22:09:58 71° SE 22:16:13 10° NE
NOSS 2-3 (D) 3.1 22:08:09 10° SW 22:11:50 87° SE 22:15:47 10° NE
Cosmos 1933 Rocket 4.3 22:09:56 10° N 22:14:03 42° ENE 22:16:54 18° SE
ALOS 2 2.9 22:11:55 19° SE 22:14:54 59° ENE 22:19:14 10° N
Cosmos 1538 Rocket 4.1 22:11:53 10° SSW 22:17:03 76° WNW 22:22:19 10° NNE
Cosmos 2315 Rocket 4.0 22:13:37 16° S 22:18:49 89° ESE 22:25:05 10° N
Cosmos 1943 Rocket 2.7 22:16:33 19° S 22:20:08 43° ESE 22:25:26 10° NE
Cosmos 2074 Rocket 4.5 22:14:36 10° N 22:20:42 52° ENE 22:25:27 17° SE
CENTAUR R/B 4.3 22:15:25 10° W 22:21:25 39° NNW 22:28:51 10° NE
Meteor 1-21 4.2 22:18:13 17° S 22:22:33 83° ESE 22:28:15 10° NNE
Cosmos 923 Rocket 4.1 22:21:16 19° S 22:25:02 63° ESE 22:30:13 10° NNE
CZ-2C R/B 3.8 22:21:57 10° NNE 22:26:39 69° ESE 22:29:46 21° S
Cosmos 1328 Rocket 3.9 22:24:40 16° SSW 22:28:06 60° WNW 22:32:25 10° N
Cosmos 2112 Rocket 4.4 22:28:53 21° SSE 22:31:57 45° ESE 22:36:53 10° NE
Lacrosse 5 rocket 1.3 22:30:44 24° SSW 22:32:22 41° SE 22:35:42 10° ENE
CZ-2C R/B 3.4 22:31:43 14° SE 22:35:52 44° ENE 22:40:49 10° N
USA 81 4.1 22:32:04 10° N 22:37:22 80° E 22:40:53 22° SSE
NOSS 2-3 (E) 3.8 22:35:53 10° WSW 22:39:30 57° NW 22:43:27 10° NE
Cosmos 1371 Rocket 4.0 22:34:52 10° NNW 22:40:10 81° WSW 22:43:38 22° SSE
USA 215 4.1 22:37:29 19° S 22:41:12 33° SW 22:47:00 10° WNW
PSLV R/B 3.9 22:37:22 10° NNE 22:41:57 60° ESE 22:44:44 23° S
Cosmos 1869 Rocket 3.7 22:41:52 10° N 22:46:08 63° ENE 22:48:44 23° SSE
Cosmos 1110 Rocket 4.4 22:42:06 10° NNW 22:47:16 59° ENE 22:51:24 16° SE
GEOS 3 Rocket 4.1 22:45:16 21° S 22:48:31 46° SW 22:53:42 10° NW
MetOp-A 3.5 22:53:36 23° SSE 22:55:57 65° ENE 22:59:45 10° N
NOSS 2-1 (D) 3.8 22:55:58 28° SSE 22:56:42 31° SE 22:59:31 10° ENE
Cosmos 2154 Rocket 4.0 22:51:10 10° N 22:57:24 80° E 23:01:51 20° SSE
Cosmos 2184 Rocket 4.0 22:52:09 10° N 22:58:26 87° E 23:02:54 21° S
Cosmos 1515 Rocket 3.7 22:55:38 21° SSW 22:58:26 71° WNW 23:02:47 10° N
NOSS 2-1 (C) 3.9 22:59:06 26° SSE 22:59:43 28° SE 23:02:29 10° ENE
USA-17 4.3 22:57:08 10° NW 23:00:21 74° NE 23:02:27 20° SE
Cosmos 1833 Rocket 4.2 22:56:53 10° NW 23:01:19 24° WSW 23:04:36 15° SSW
Spot 4 4.4 22:59:30 21° SSW 23:02:25 47° W 23:07:06 10° NNW
USA 59 Rocket -0.2 23:01:29 31° S 23:02:28 41° SE 23:05:20 10° ENE
Cosmos 1733 Rocket 3.9 23:02:06 10° N 23:06:12 42° ENE 23:09:08 17° SE
SAR-Lupe-2 3.2 23:05:52 32° S 23:07:12 74° WSW 23:10:26 10° NNW
Cosmos 2082 Rocket 2.1 23:02:04 10° NNW 23:07:44 85° WSW 23:11:51 19° SSE
Okean 3 3.3 23:09:18 25° SSW 23:11:32 77° WNW 23:15:33 10° N
Cosmos 2278 Rocket 2.2 23:09:54 19° SSW 23:14:01 78° ESE 23:19:43 10° NNE
Cosmos 1331 Rocket 3.9 23:14:49 10° NNW 23:19:59 86° WSW 23:23:33 20° SSE
Okean 1-7 3.9 23:20:00 20° SSE 23:22:18 37° E 23:26:12 10° NNE
Cosmos 1400 Rocket 3.7 23:20:30 10° NNW 23:23:52 33° W 23:25:30 22° SW
CZ-2C R/B 3.2 23:20:21 10° NNE 23:26:00 89° ESE 23:29:38 21° SSW
COSMOS 2406 3.4 23:20:20 10° NNW 23:26:03 71° NE 23:31:26 11° SE
Cosmos 1680 Rocket 3.9 23:22:44 15° SW 23:27:00 61° WNW 23:32:11 10° NNE
Cosmos 494 Rocket 4.2 23:24:38 17° SW 23:28:44 69° WNW 23:33:59 10° NNE
NOSS 3-2 (C) 4.5 23:24:35 10° W 23:29:48 45° NNW 23:36:09 10° NE
IRIDIUM 106 4.5 23:26:44 10° N 23:31:58 71° E 23:35:33 21° SSE
Helios 1B rocket 4.4 23:31:42 10° WSW 23:33:07 12° W 23:34:32 10° WNW
Cosmos 1048 Rocket 4.0 23:31:19 22° SSW 23:34:39 73° ESE 23:39:55 10° NNE
Cosmos 1812 3.5 23:34:58 10° NW 23:35:32 13° WNW 23:35:32 13° WNW
Cosmos 1328 3.4 23:35:16 29° S 23:36:57 82° E 23:40:31 10° NNE
ARIANE 5 R/B 4.3 23:36:34 15° SW 23:38:58 22° W 23:42:28 10° NW
ACS3 Solar Sail 1.9 23:33:33 10° NNE 23:39:13 60° E 23:43:11 20° S
USA 238 DEB 3.6 23:36:16 11° SW 23:42:14 87° NW 23:49:12 10° NE
Lacrosse 4 Rocket 3.7 23:38:55 10° NNW 23:42:24 25° NE 23:45:53 10° E
USA 238 3.6 23:36:32 11° SW 23:42:27 88° NW 23:49:25 10° NE
Geosat 4.2 23:41:35 10° NE 23:46:32 59° ESE 23:49:42 22° S
BREEZE-M DEB (TANK) 3.1 23:39:22 10° W 23:50:28 64° SSW 23:54:08 10° ESE
ALOS 2 4.4 23:49:18 14° SW 23:51:36 19° W 23:54:49 10° NW
SWAS 4.3 23:52:23 25° SSW 23:54:39 72° ESE 23:58:43 10° NE
TIMED 4.4 23:53:01 23° SSW 23:55:35 90° ESE 23:59:52 10° NNE
Cosmos 1441 Rocket 4.2 23:54:17 18° WSW 23:56:05 29° WNW 23:58:59 10° N
